Regional Weather Roundup
Issued by NWS Portland, ME

Home | Current Version | Previous Version | Text Only | Print | Product List | Glossary On
Versions: 1 2 3 4 5 6 7 8 9 10 11 12 13 14 15 16 17 18 19 20 21 22 23 24 25 26 27 28 29 30 31 32 33 34 35 36 37 38 39 40 41 42 43 44 45 46 47 48 49 50
000
ASUS41 KGYX 181410
RWRGYX
WEATHER ROUNDUP FOR MAINE AND NEW HAMPSHIRE
NATIONAL WEATHER SERVICE GRAY ME
900 AM EST MON DEC 18 2017

MEZ002-005-006-010-012-015-018-020-021-024-026-027-029-181500-
MAINE

CITY           SKY/WX    TMP DP  RH WIND       PRES   REMARKS
PORTLAND       FLURRIES  16   7  67 W6        30.18S
SANFORD        LGT SNOW  18  12  79 CALM      30.18S
BAR HARBOR     CLOUDY    12   7  80 N5        30.20S
WISCASSET      MOSUNNY   14   7  73 CALM      30.18F
ROCKLAND       CLOUDY    21  15  78 NE3       30.18S
FRYEBURG       CLOUDY    11   8  88 CALM      30.14F
LEWISTONAUBURN CLOUDY    12   7  80 CALM      30.16F
AUGUSTA        MOSUNNY    9   3  77 CALM      30.15F
WATERVILLE     CLOUDY    10   5  80 CALM      30.11F
BANGOR         CLOUDY     8   4  83 S3        30.18F
GREENVILLE       N/A      6  -2  69 SE7       29.99F
MILLINOCKET    CLOUDY     7   0  73 VRB3      30.15S
HOULTON        CLOUDY     3  -3  76 CALM      30.11S
PRESQUE ISLE   CLOUDY     1  -4  79 W3        30.12S
FRENCHVILLE    CLOUDY    -3  -6  87 S5        30.04R
CARIBOU        CLOUDY    -1  -5  82 CALM      30.09R
$$

NHZ002-005-008-009-011-012-014-181500-
NEW HAMPSHIRE

CITY           SKY/WX    TMP DP  RH WIND       PRES   REMARKS
PORTSMOUTH     LGT SNOW  17  12  78 NW5       30.17S FOG
ROCHESTER      LGT SNOW  16  13  88 CALM      30.16S FOG
NASHUA         CLOUDY    22  14  71 CALM      30.17F
MANCHESTER     CLOUDY    20  11  68 CALM      30.15F
CONCORD        LGT SNOW  17  12  80 CALM      30.16S
LACONIA        LGT SNOW  17  12  80 CALM      30.14F
PLYMOUTH       CLOUDY    13   8  83 CALM      30.15S
BERLIN         CLOUDY     4   0  83 CALM      30.05F
WHITEFIELD     CLOUDY     7   3  84 N3        30.06S
JAFFREY        CLOUDY    21  16  81 S3        30.09S
KEENE          CLOUDY    18  14  84 CALM      30.13F
LEBANON        CLOUDY    14   9  80 CALM      30.10F
MT WASHINGTON  BLWGSNOW  16  16 100 W43         N/A  VSB 0   WCI  -7
$$

VTZ005-007-008-181500-
VERMONT

CITY           SKY/WX    TMP DP  RH WIND       PRES   REMARKS
ST JOHNSBURY     N/A      6   3  87 MISG      30.08F
MONTPELIER     CLOUDY     9   6  88 CALM      30.06F
BURLINGTON     CLOUDY    20  12  71 CALM      30.04F
$$

MAZ007-012-024-CTZ003-RIZ002-NYZ038-NYZ072-181500-
SOUTHERN NEW ENGLAND AND NY

CITY           SKY/WX    TMP DP  RH WIND       PRES   REMARKS
BOSTON         CLOUDY    28  11  48 S5        30.18F
WORCESTER      CLOUDY    22   9  57 S3        30.10F
NANTUCKET      CLOUDY    34  21  59 SE6       30.18F
PROVIDENCE     CLOUDY    29  18  63 N5        30.17F
HARTFORD       CLOUDY    26  15  63 CALM      30.15F
ALBANY         FLURRIES  24  15  68 CALM      30.09F
NEW YORK CITY  CLOUDY    37  31  78 NE8       30.11F
$$

ANZ081-ANZ082-ANZ150-NHZ014-MEZ023>029-181500-
COASTAL MARINE OBSERVATIONS

STATION/POSITION TIME  TEMP    WIND        PRES    WAVE
                       AIR SEA DIR/SP/G            HT/PER
                 (UTC) (F)     (DEG/KT/KT) (MB)    (FT/S)
MOUNT DESERT ROC 1400   24     190/  2/  3 1022.4R
MATINICUS ROCK   1300   25     140/  6/  8 1021.4F
ISLE OF SHOALS   1300   24     280/  3/  5 1021.7F
JEFFREYS LEDGE   1336      47                N/A     1/11
GEORGES BANK BUO 1350   38 50              1022.2R   4/ 7
$$

.............KEY..............
   WCI - WIND CHILL
   TC  - TEMPERATURE IN CELSIUS
   VSB - VISIBILITY IN MILES
   HX  - HEAT INDEX
   FAIR- INDICATES FEW OR NO CLOUDS BELOW 12,000 FT, WITH NO
         SIGNIFICANT WEATHER AND/OR OBSTRUCTIONS TO VISIBILITY.





USA.gov is the U.S. government's official web portal to all federal, state and local government web resources and services.